Time,TemperatureF,DewpointF,PressureIn,WindDirection,WindDirectionDegrees,WindSpeedMPH,WindSpeedGustMPH,Humidity,HourlyPrecipIn,Conditions,Clouds,dailyrainin,SoftwareType,DateUTC
2013-03-06 00:00:00,41.9,34.3,27.81,ESE,104,7.2,19.9,82,0.00,,,-99.99,HOBO +U30 +Weather +,2013-03-06 08:00:00,
2013-03-06 00:15:00,41.9,33.8,27.80,ESE,115,5.8,25.3,80,0.00,,,-99.99,HOBO +U30 +Weather +,2013-03-06 08:15:00,
2013-03-06 00:30:00,41.8,33.5,27.79,ESE,119,5.4,27.1,78,0.00,,,-99.99,HOBO +U30 +Weather +,2013-03-06 08:30:00,
2013-03-06 00:45:00,41.8,33.1,27.78,SE,129,3.4,16.1,79,0.00,,,-99.99,HOBO +U30 +Weather +,2013-03-06 08:45:00,
2013-03-06 01:00:00,41.7,33.3,27.78,SSE,147,3.4,8.7,79,0.00,,,-99.99,HOBO +U30 +Weather +,2013-03-06 09:00:00,
2013-03-06 01:15:00,41.6,33.4,27.78,SSE,159,2.5,24.4,79,0.00,,,-99.99,HOBO +U30 +Weather +,2013-03-06 09:15:00,
2013-03-06 01:30:00,41.6,33.5,27.77,South,190,3.8,7.2,81,0.00,,,-99.99,HOBO +U30 +Weather +,2013-03-06 09:30:00,
2013-03-06 01:45:00,41.5,33.2,27.77,SE,133,1.3,25.3,82,0.00,,,-99.99,HOBO +U30 +Weather +,2013-03-06 09:45:00,
2013-03-06 02:00:00,41.5,33.1,27.76,ESE,105,0.9,2.5,85,0.00,,,-99.99,HOBO +U30 +Weather +,2013-03-06 10:00:00,
2013-03-06 02:15:00,41.4,32.8,27.74,ESE,105,0.9,2.9,87,0.00,,,-99.99,HOBO +U30 +Weather +,2013-03-06 10:15:00,
2013-03-06 02:30:00,41.4,32.4,27.74,ESE,105,0.4,23.3,87,0.00,,,-99.99,HOBO +U30 +Weather +,2013-03-06 10:30:00,
2013-03-06 02:45:00,41.3,32.0,27.73,East,91,1.3,3.4,88,0.00,,,-99.99,HOBO +U30 +Weather +,2013-03-06 10:45:00,
2013-03-06 03:00:00,41.3,32.2,27.73,NE,38,1.3,16.6,86,0.00,,,-99.99,HOBO +U30 +Weather +,2013-03-06 11:00:00,
2013-03-06 03:15:00,41.2,32.2,27.72,NE,45,1.6,3.8,84,0.00,,,-99.99,HOBO +U30 +Weather +,2013-03-06 11:15:00,
2013-03-06 03:30:00,41.1,32.7,27.71,ENE,65,2.0,4.9,81,0.00,,,-99.99,HOBO +U30 +Weather +,2013-03-06 11:30:00,
2013-03-06 03:45:00,41.1,32.5,27.71,SW,229,1.3,24.4,86,0.00,,,-99.99,HOBO +U30 +Weather +,2013-03-06 11:45:00,
2013-03-06 04:00:00,41.0,32.4,27.70,NNE,29,1.6,3.4,84,0.00,,,-99.99,HOBO +U30 +Weather +,2013-03-06 12:00:00,
2013-03-06 04:15:00,41.0,32.9,27.70,NNE,29,0.9,21.3,83,0.00,,,-99.99,HOBO +U30 +Weather +,2013-03-06 12:15:00,
2013-03-06 04:30:00,40.9,33.2,27.70,North,3,1.6,21.3,86,0.00,,,-99.99,HOBO +U30 +Weather +,2013-03-06 12:30:00,
2013-03-06 04:45:00,40.9,32.7,27.69,NW,313,1.3,4.5,85,0.00,,,-99.99,HOBO +U30 +Weather +,2013-03-06 12:45:00,
2013-03-06 05:00:00,40.9,32.7,27.69,WSW,251,0.9,3.4,87,0.00,,,-99.99,HOBO +U30 +Weather +,2013-03-06 13:00:00,
2013-03-06 05:15:00,40.8,32.8,27.69,WSW,257,1.3,21.9,90,0.00,,,-99.99,HOBO +U30 +Weather +,2013-03-06 13:15:00,
2013-03-06 05:30:00,40.8,32.9,27.69,NNW,333,2.0,6.3,92,0.00,,,-99.99,HOBO +U30 +Weather +,2013-03-06 13:30:00,
2013-03-06 05:45:00,40.8,33.0,27.68,NNW,327,1.6,5.4,93,0.00,,,-99.99,HOBO +U30 +Weather +,2013-03-06 13:45:00,
2013-03-06 06:00:00,40.7,33.3,27.68,WNW,293,1.3,23.3,93,0.00,,,-99.99,HOBO +U30 +Weather +,2013-03-06 14:00:00,
2013-03-06 06:15:00,40.7,33.4,27.68,WSW,257,0.4,24.8,94,0.00,,,-99.99,HOBO +U30 +Weather +,2013-03-06 14:15:00,
2013-03-06 06:30:00,40.7,33.3,27.69,NNW,329,0.9,3.4,94,0.00,,,-99.99,HOBO +U30 +Weather +,2013-03-06 14:30:00,
2013-03-06 06:45:00,40.6,33.5,27.69,NNW,336,0.9,3.4,95,0.00,,,-99.99,HOBO +U30 +Weather +,2013-03-06 14:45:00,
2013-03-06 07:00:00,40.6,33.6,27.69,NNW,327,0.9,11.2,95,0.00,,,-99.99,HOBO +U30 +Weather +,2013-03-06 15:00:00,
2013-03-06 07:15:00,40.6,33.9,27.69,NW,312,0.4,3.8,95,0.00,,,-99.99,HOBO +U30 +Weather +,2013-03-06 15:15:00,
2013-03-06 07:30:00,40.5,34.1,27.69,North,355,0.4,3.4,95,0.00,,,-99.99,HOBO +U30 +Weather +,2013-03-06 15:30:00,
2013-03-06 07:45:00,40.5,34.3,27.69,North,352,0.0,0.0,95,0.00,,,-99.99,HOBO +U30 +Weather +,2013-03-06 15:45:00,
2013-03-06 08:00:00,40.5,34.5,27.70,NNE,29,0.4,21.5,95,0.00,,,-99.99,HOBO +U30 +Weather +,2013-03-06 16:00:00,
2013-03-06 08:15:00,40.5,34.6,27.70,NW,310,0.4,2.9,95,0.00,,,-99.99,HOBO +U30 +Weather +,2013-03-06 16:15:00,
2013-03-06 08:30:00,40.5,34.9,27.70,West,278,1.3,15.0,95,0.00,,,-99.99,HOBO +U30 +Weather +,2013-03-06 16:30:00,
2013-03-06 08:45:00,40.5,35.3,27.70,SW,236,0.4,23.3,94,0.00,,,-99.99,HOBO +U30 +Weather +,2013-03-06 16:45:00,
2013-03-06 09:00:00,40.5,35.9,27.70,SW,236,0.0,2.0,92,0.00,,,-99.99,HOBO +U30 +Weather +,2013-03-06 17:00:00,
2013-03-06 09:15:00,40.5,35.7,27.70,WSW,240,0.9,2.9,93,0.00,,,-99.99,HOBO +U30 +Weather +,2013-03-06 17:15:00,
2013-03-06 09:30:00,40.5,36.0,27.70,West,263,1.3,10.1,94,0.00,,,-99.99,HOBO +U30 +Weather +,2013-03-06 17:30:00,
2013-03-06 09:45:00,40.6,35.6,27.71,NW,316,0.9,4.3,94,0.00,,,-99.99,HOBO +U30 +Weather +,2013-03-06 17:45:00,
2013-03-06 10:00:00,40.6,35.9,27.71,NW,307,1.3,24.8,94,0.00,,,-99.99,HOBO +U30 +Weather +,2013-03-06 18:00:00,
2013-03-06 10:15:00,40.7,35.9,27.72,NW,319,1.3,20.4,94,0.30,,,-99.99,HOBO +U30 +Weather +,2013-03-06 18:15:00,
2013-03-06 10:30:00,40.7,35.9,27.71,WNW,292,1.3,24.2,94,0.30,,,-99.99,HOBO +U30 +Weather +,2013-03-06 18:30:00,
2013-03-06 10:45:00,40.7,36.1,27.73,WNW,285,0.9,2.9,94,0.00,,,-99.99,HOBO +U30 +Weather +,2013-03-06 18:45:00,
2013-03-06 11:00:00,40.8,36.1,27.73,West,275,0.0,1.6,94,0.50,,,-99.99,HOBO +U30 +Weather +,2013-03-06 19:00:00,
2013-03-06 11:15:00,40.8,35.9,27.73,SSE,167,0.0,23.3,93,0.30,,,-99.99,HOBO +U30 +Weather +,2013-03-06 19:15:00,
2013-03-06 11:30:00,40.8,36.3,27.74,NW,320,0.4,21.9,94,0.30,,,-99.99,HOBO +U30 +Weather +,2013-03-06 19:30:00,
2013-03-06 11:45:00,40.8,36.0,27.75,NW,320,0.0,0.0,94,0.50,,,-99.99,HOBO +U30 +Weather +,2013-03-06 19:45:00,
2013-03-06 12:00:00,40.9,36.3,27.75,WNW,289,0.0,0.0,94,0.00,,,-99.99,HOBO +U30 +Weather +,2013-03-06 20:00:00,
2013-03-06 12:15:00,40.9,36.1,27.76,WSW,254,0.0,0.0,93,0.50,,,-99.99,HOBO +U30 +Weather +,2013-03-06 20:15:00,
2013-03-06 12:30:00,40.9,35.9,27.76,West,263,0.0,0.0,93,0.30,,,-99.99,HOBO +U30 +Weather +,2013-03-06 20:30:00,
2013-03-06 12:45:00,40.9,35.4,27.77,WNW,288,0.0,0.0,94,0.30,,,-99.99,HOBO +U30 +Weather +,2013-03-06 20:45:00,
2013-03-06 13:00:00,41.0,35.2,27.78,NW,314,0.0,0.0,94,0.50,,,-99.99,HOBO +U30 +Weather +,2013-03-06 21:00:00,
2013-03-06 13:15:00,41.0,35.3,27.78,NW,320,0.0,0.0,94,0.50,,,-99.99,HOBO +U30 +Weather +,2013-03-06 21:15:00,
2013-03-06 13:45:00,41.1,36.2,27.79,NW,305,0.0,0.0,94,0.50,,,-99.99,HOBO +U30 +Weather +,2013-03-06 21:45:00,
2013-03-06 14:00:00,41.1,37.4,27.80,NW,317,0.0,0.0,94,0.00,,,-99.99,HOBO +U30 +Weather +,2013-03-06 22:00:00,
2013-03-06 14:15:00,41.2,36.6,27.80,WNW,296,0.0,0.0,92,0.30,,,-99.99,HOBO +U30 +Weather +,2013-03-06 22:15:00,
2013-03-06 14:30:00,41.2,36.9,27.81,NNW,344,0.0,0.0,92,0.30,,,-99.99,HOBO +U30 +Weather +,2013-03-06 22:30:00,
2013-03-06 14:45:00,41.3,37.0,27.82,North,355,0.0,0.0,93,0.30,,,-99.99,HOBO +U30 +Weather +,2013-03-06 22:45:00,
2013-03-06 15:00:00,41.3,37.0,27.83,NNW,329,0.0,0.0,93,0.30,,,-99.99,HOBO +U30 +Weather +,2013-03-06 23:00:00,
2013-03-06 15:15:00,41.4,37.1,27.83,NNW,343,0.0,0.0,93,0.50,,,-99.99,HOBO +U30 +Weather +,2013-03-06 23:15:00,
2013-03-06 15:30:00,41.4,36.4,27.84,North,352,0.0,0.0,93,0.30,,,-99.99,HOBO +U30 +Weather +,2013-03-06 23:30:00,
2013-03-06 15:45:00,41.5,36.2,27.84,North,8,0.0,0.0,93,0.30,,,-99.99,HOBO +U30 +Weather +,2013-03-06 23:45:00,
2013-03-06 16:00:00,41.5,35.7,27.86,NNE,17,0.0,0.0,92,0.50,,,-99.99,HOBO +U30 +Weather +,2013-03-07 00:00:00,
2013-03-06 16:15:00,41.6,34.9,27.86,NNE,22,0.0,0.0,94,0.50,,,-99.99,HOBO +U30 +Weather +,2013-03-07 00:15:00,
2013-03-06 16:30:00,41.6,35.4,27.87,NNE,20,0.0,0.0,95,0.50,,,-99.99,HOBO +U30 +Weather +,2013-03-07 00:30:00,
2013-03-06 16:45:00,41.6,34.7,27.87,NW,323,0.9,4.3,95,0.50,,,-99.99,HOBO +U30 +Weather +,2013-03-07 00:45:00,
2013-03-06 17:00:00,41.5,34.3,27.88,North,1,1.3,3.4,95,0.50,,,-99.99,HOBO +U30 +Weather +,2013-03-07 01:00:00,
2013-03-06 17:15:00,41.5,34.6,27.89,WNW,300,0.0,20.8,96,0.50,,,-99.99,HOBO +U30 +Weather +,2013-03-07 01:15:00,
2013-03-06 17:30:00,41.4,34.4,27.89,West,268,0.0,20.4,96,0.30,,,-99.99,HOBO +U30 +Weather +,2013-03-07 01:30:00,
2013-03-06 17:45:00,41.3,33.8,27.90,SSW,212,1.3,21.3,96,0.30,,,-99.99,HOBO +U30 +Weather +,2013-03-07 01:45:00,
2013-03-06 18:00:00,41.3,33.6,27.90,SSW,213,0.4,21.9,96,0.00,,,-99.99,HOBO +U30 +Weather +,2013-03-07 02:00:00,
2013-03-06 18:15:00,41.2,33.5,27.91,SW,223,0.0,23.3,96,0.30,,,-99.99,HOBO +U30 +Weather +,2013-03-07 02:15:00,
2013-03-06 18:30:00,41.1,33.7,27.91,South,183,0.4,23.7,96,0.00,,,-99.99,HOBO +U30 +Weather +,2013-03-07 02:30:00,
2013-03-06 18:45:00,41.0,33.6,27.92,WSW,256,0.0,0.0,96,0.00,,,-99.99,HOBO +U30 +Weather +,2013-03-07 02:45:00,
2013-03-06 19:00:00,40.9,33.7,27.93,SSW,199,1.3,4.3,96,0.30,,,-99.99,HOBO +U30 +Weather +,2013-03-07 03:00:00,
2013-03-06 19:15:00,40.9,33.5,27.93,SSW,199,0.9,23.3,96,0.00,,,-99.99,HOBO +U30 +Weather +,2013-03-07 03:15:00,
2013-03-06 19:30:00,40.9,33.7,27.93,SSW,201,0.0,21.5,96,0.00,,,-99.99,HOBO +U30 +Weather +,2013-03-07 03:30:00,
2013-03-06 19:45:00,40.8,33.6,27.95,NNW,347,1.6,20.8,97,0.00,,,-99.99,HOBO +U30 +Weather +,2013-03-07 03:45:00,
2013-03-06 20:00:00,40.8,33.7,27.95,NNE,28,0.4,2.5,97,0.30,,,-99.99,HOBO +U30 +Weather +,2013-03-07 04:00:00,
2013-03-06 20:15:00,40.7,33.7,27.95,South,191,1.6,21.3,97,0.30,,,-99.99,HOBO +U30 +Weather +,2013-03-07 04:15:00,
2013-03-06 20:30:00,40.7,33.5,27.96,SW,225,1.3,21.5,97,0.00,,,-99.99,HOBO +U30 +Weather +,2013-03-07 04:30:00,
2013-03-06 20:45:00,40.6,33.8,27.96,SE,138,0.4,22.4,97,0.00,,,-99.99,HOBO +U30 +Weather +,2013-03-07 04:45:00,
2013-03-06 21:00:00,40.6,33.7,27.97,SSW,211,0.9,5.8,97,0.00,,,-99.99,HOBO +U30 +Weather +,2013-03-07 05:00:00,
2013-03-06 21:15:00,40.5,33.9,27.98,SW,222,2.0,22.4,97,0.00,,,-99.99,HOBO +U30 +Weather +,2013-03-07 05:15:00,
2013-03-06 21:30:00,40.5,33.8,27.98,SW,223,0.9,23.3,97,0.00,,,-99.99,HOBO +U30 +Weather +,2013-03-07 05:30:00,
2013-03-06 21:45:00,40.5,34.2,27.98,NNW,327,1.6,4.3,97,0.00,,,-99.99,HOBO +U30 +Weather +,2013-03-07 05:45:00,
2013-03-06 22:00:00,40.4,34.0,27.99,WSW,248,0.0,13.6,97,0.00,,,-99.99,HOBO +U30 +Weather +,2013-03-07 06:00:00,
2013-03-06 22:15:00,40.4,34.2,27.99,WNW,289,0.4,2.9,97,0.30,,,-99.99,HOBO +U30 +Weather +,2013-03-07 06:15:00,
2013-03-06 22:30:00,40.4,34.3,27.99,SSE,163,0.4,2.9,97,0.00,,,-99.99,HOBO +U30 +Weather +,2013-03-07 06:30:00,
2013-03-06 22:45:00,40.4,33.9,28.01,South,185,1.3,4.5,97,0.00,,,-99.99,HOBO +U30 +Weather +,2013-03-07 06:45:00,
2013-03-06 23:00:00,40.3,34.5,28.01,East,81,0.4,21.5,97,0.00,,,-99.99,HOBO +U30 +Weather +,2013-03-07 07:00:00,
2013-03-06 23:15:00,40.3,34.7,28.01,NE,42,2.9,21.5,97,0.30,,,-99.99,HOBO +U30 +Weather +,2013-03-07 07:15:00,
2013-03-06 23:30:00,40.2,34.9,28.02,ENE,76,1.3,23.7,97,0.00,,,-99.99,HOBO +U30 +Weather +,2013-03-07 07:30:00,